EXPRESS MD2

导读

EXPRESS MD2是俄罗斯卫星通信公司运营的一颗地球静止轨道通信卫星,属于“Ekspress”系列通信卫星,由赫鲁尼切夫中心提供卫星平台,泰雷兹阿莱尼亚宇航公司提供有效载荷。 该卫星于2012年8月6日,从哈萨克斯坦拜科努尔航天发射场,由质子-M运载火箭搭载升空,主要为俄罗斯及周边区域提供广播电视、宽带通信、数据传输等商业通信服务,补充完善俄罗斯本土的卫星通信网络覆盖能力。

基本信息
目录编号:
38745
目录名称:
EXPRESS MD2
国际标识:
2012-044B
轨道中心:
EARTH
卫星名称:
EXPRESS MD2
卫星全名:
--
卫星状态:
在轨 (已飞行5152 天)
发射日期:
2012-08-06 UTC
国别 :
俄罗斯(独联体) (CIS)
星等 :
--
该卫星已列入 空间交会检测服务 Space Conjunction Data Service (SCDS) ,当前飞行风险评估等级: 无高风险
轨道信息
数据来源 国际轨道数据 AOE轨道数据
星历时间 2026-09-14T09:12:13+0800
7小时前
查看轨道信息
2026-09-12T23:00:00+0800
1天前
查看轨道信息
半长轴 7843.343km 7843.943km
偏心率 0.1540321 0.154105
轨道倾角 49.822° 49.820°
近地点辐角 53.910° 49.991°
升交点赤经 135.171° 139.835°
平近点角 319.476° 27.530°
近地点 257.079km 257.015km
远地点 2673.333km 2674.597km
周期 115.216分钟 115.229分钟
每日圈数 12.498301 12.496868
详细信息
使用方式:
暂无
2D轨道图
3D轨道图
轨道高度分析图
轨道倾角分析图
轨道综合分析图
查看轨道综合分析图
与全量物体交会距离演化趋势 订阅飞行安全评估服务
与全量物体交会风险概率演化趋势 订阅飞行安全评估服务